Location: Azul
(36.7830°S, 59.8500°W)
Time: 00:51:52
(UTC-03:00)

STARS - Pass Details

Date: 24 October 2021
Orbit: 623 x 638 km, 98.2° (Epoch: 30 November)

Event Time Altitude Azimuth Distance (km) Brightness Sun altitude
Exits shadow 21:43:13 25° 143° (SE) 1,302 ? -25.3°
Drops below altitude 10° 21:45:39 10° 170° (S) 2,033 ? -25.7°
Sets 21:48:03 0° 180° (S) 2,947 ? -26.0°
